Total_Precipitation_Accumulation
0.00 0.04 0.12 0.08 0.06 0.06 0.06 0.06 0.07 0.08 0.11 0.15 0.19 0.20 0.20 0.21 0.20 0.16 0.18 0.17 0.18 0.19 0.22 0.26 0.26 0.25 0.23 0.22 0.19 0.11 0.06 0.04 0.03 0.03 0.03 0.05 0.06 0.06 0.05 0.06 0.08 0.10 0.13
0.00 0.03 0.11 0.09 0.08 0.08 0.08 0.07 0.07 0.08 0.11 0.17 0.24 0.24 0.21 0.20 0.19 0.17 0.14 0.14 0.15 0.18 0.25 0.25 0.19 0.12 0.08 0.06 0.04 0.04 0.03 0.02 0.00 0.00 0.00 0.01 0.02 0.03 0.03 0.03 0.06 0.09 0.11
0.00 0.04 0.10 0.11 0.10 0.10 0.09 0.07 0.06 0.08 0.12 0.18 0.25 0.23 0.21 0.17 0.16 0.16 0.12 0.12 0.13 0.16 0.17 0.14 0.09 0.05 0.03 0.02 0.01 0.01 0.01 0.00 0.00 0.00 0.00 0.01 0.01 0.02 0.02 0.03 0.05 0.06 0.08
0.01 0.04 0.08 0.13 0.11 0.09 0.09 0.08 0.07 0.09 0.13 0.18 0.25 0.24 0.21 0.18 0.19 0.16 0.13 0.09 0.08 0.08 0.06 0.05 0.04 0.02 0.01 0.01 0.01 0.01 0.00 0.00 0.00 0.00 0.00 0.01 0.01 0.03 0.04 0.04 0.04 0.06 0.08
0.04 0.05 0.10 0.14 0.12 0.10 0.09 0.09 0.10 0.12 0.15 0.20 0.25 0.25 0.20 0.19 0.18 0.14 0.09 0.05 0.04 0.04 0.03 0.02 0.02 0.01 0.01 0.01 0.01 0.01 0.01 0.00 0.00 0.00 0.00 0.01 0.02 0.04 0.05 0.05 0.06 0.08 0.09
0.07 0.10 0.16 0.18 0.16 0.14 0.12 0.11 0.12 0.14 0.18 0.23 0.28 0.27 0.21 0.21 0.21 0.15 0.08 0.04 0.03 0.03 0.02 0.01 0.02 0.01 0.01 0.01 0.01 0.00 0.00 0.00 0.00 0.00 0.01 0.01 0.02 0.04 0.05 0.06 0.08 0.10 0.12
0.12 0.17 0.23 0.26 0.24 0.21 0.18 0.17 0.16 0.17 0.22 0.27 0.29 0.27 0.23 0.22 0.21 0.16 0.11 0.05 0.03 0.03 0.03 0.02 0.02 0.02 0.02 0.01 0.01 0.00 0.00 0.00 0.00 0.00 0.01 0.01 0.02 0.04 0.06 0.07 0.10 0.12 0.13
0.28 0.34 0.36 0.36 0.31 0.27 0.25 0.24 0.21 0.22 0.26 0.29 0.29 0.28 0.26 0.21 0.20 0.19 0.14 0.07 0.05 0.04 0.04 0.03 0.03 0.03 0.02 0.02 0.01 0.00 0.00 0.00 0.00 0.00 0.00 0.01 0.02 0.06 0.07 0.08 0.10 0.11 0.11
0.62 0.65 0.60 0.50 0.39 0.36 0.32 0.26 0.22 0.24 0.29 0.33 0.33 0.32 0.28 0.25 0.22 0.19 0.16 0.11 0.08 0.07 0.06 0.05 0.03 0.03 0.03 0.01 0.01 0.00 0.00 0.00 0.00 0.00 0.00 0.01 0.04 0.09 0.11 0.12 0.14 0.14 0.13
0.99 0.98 0.86 0.71 0.53 0.44 0.38 0.32 0.25 0.24 0.28 0.32 0.32 0.28 0.23 0.20 0.21 0.19 0.13 0.11 0.09 0.08 0.06 0.04 0.04 0.04 0.02 0.01 0.00 0.00 0.00 0.00 0.00 0.00 0.00 0.02 0.08 0.15 0.16 0.17 0.19 0.17 0.15
1.22 1.25 1.17 0.95 0.73 0.56 0.44 0.34 0.30 0.27 0.28 0.29 0.27 0.22 0.20 0.18 0.19 0.17 0.11 0.07 0.07 0.08 0.06 0.05 0.04 0.02 0.00 0.00 0.00 0.00 0.00 0.00 0.00 0.00 0.01 0.04 0.11 0.15 0.13 0.13 0.12 0.10 0.08
1.30 1.29 1.31 1.16 0.91 0.70 0.54 0.41 0.34 0.28 0.27 0.25 0.21 0.21 0.18 0.17 0.17 0.14 0.12 0.10 0.08 0.07 0.06 0.05 0.03 0.01 0.00 0.00 0.00 0.00 0.00 0.00 0.00 0.00 0.01 0.02 0.05 0.07 0.06 0.05 0.05 0.05 0.04
1.41 1.38 1.41 1.37 1.13 0.87 0.63 0.46 0.39 0.31 0.29 0.26 0.22 0.20 0.18 0.18 0.18 0.16 0.14 0.14 0.12 0.08 0.07 0.05 0.03 0.02 0.01 0.00 0.00 0.00 0.00 0.00 0.00 0.00 0.00 0.00 0.02 0.04 0.05 0.04 0.03 0.04 0.05
1.53 1.43 1.45 1.46 1.30 1.09 0.81 0.57 0.42 0.33 0.30 0.27 0.24 0.24 0.23 0.19 0.16 0.15 0.14 0.13 0.12 0.09 0.07 0.05 0.03 0.02 0.01 0.00 0.00 0.00 0.00 0.00 0.00 0.00 0.00 0.00 0.01 0.02 0.03 0.04 0.05 0.07 0.07
1.52 1.51 1.48 1.42 1.33 1.23 1.08 0.80 0.54 0.41 0.35 0.33 0.30 0.27 0.26 0.24 0.20 0.17 0.15 0.13 0.10 0.08 0.06 0.04 0.02 0.02 0.01 0.00 0.00 0.00 0.00 0.00 0.00 0.00 0.00 0.00 0.00 0.01 0.02 0.03 0.07 0.10 0.12
1.39 1.48 1.51 1.41 1.32 1.21 1.15 1.04 0.80 0.57 0.45 0.43 0.41 0.34 0.29 0.28 0.28 0.24 0.18 0.15 0.11 0.08 0.05 0.04 0.03 0.02 0.01 0.00 0.00 0.00 0.00 0.00 0.00 0.00 0.00 0.00 0.00 0.00 0.01 0.03 0.07 0.11 0.15
1.23 1.35 1.45 1.49 1.43 1.26 1.17 1.16 1.02 0.83 0.63 0.48 0.44 0.42 0.37 0.32 0.29 0.27 0.23 0.18 0.14 0.12 0.09 0.06 0.04 0.02 0.01 0.01 0.00 0.00 0.00 0.00 0.00 0.00 0.00 0.00 0.00 0.00 0.01 0.02 0.05 0.10 0.16
1.13 1.23 1.32 1.39 1.43 1.37 1.24 1.22 1.19 1.03 0.84 0.64 0.50 0.43 0.40 0.36 0.34 0.31 0.26 0.22 0.20 0.18 0.16 0.12 0.08 0.05 0.03 0.02 0.01 0.01 0.02 0.01 0.01 0.00 0.00 0.00 0.00 0.00 0.00 0.01 0.04 0.08 0.12
1.05 1.17 1.28 1.30 1.36 1.41 1.47 1.41 1.29 1.20 1.01 0.81 0.65 0.49 0.44 0.43 0.41 0.38 0.31 0.28 0.24 0.21 0.20 0.18 0.13 0.09 0.07 0.06 0.05 0.04 0.03 0.02 0.02 0.01 0.01 0.01 0.01 0.01 0.01 0.01 0.01 0.02 0.04
1.09 1.21 1.34 1.34 1.45 1.55 1.67 1.64 1.50 1.32 1.14 0.98 0.80 0.62 0.55 0.52 0.52 0.46 0.39 0.36 0.31 0.24 0.20 0.19 0.19 0.16 0.13 0.12 0.10 0.05 0.04 0.03 0.02 0.01 0.01 0.02 0.02 0.02 0.02 0.01 0.01 0.02 0.02
1.22 1.26 1.37 1.42 1.51 1.58 1.57 1.47 1.34 1.22 1.16 1.08 0.93 0.86 0.76 0.69 0.68 0.62 0.52 0.45 0.42 0.34 0.27 0.27 0.28 0.24 0.22 0.21 0.16 0.07 0.04 0.03 0.02 0.02 0.02 0.03 0.03 0.03 0.03 0.03 0.03 0.03 0.02
1.24 1.27 1.40 1.46 1.50 1.51 1.54 1.59 1.53 1.54 1.45 1.35 1.25 1.14 1.02 0.93 0.89 0.82 0.75 0.69 0.64 0.56 0.46 0.40 0.37 0.32 0.30 0.31 0.27 0.20 0.09 0.04 0.03 0.04 0.04 0.04 0.04 0.04 0.04 0.05 0.05 0.04 0.03
1.14 1.34 1.41 1.46 1.50 1.53 1.72 2.05 1.99 1.87 1.74 1.61 1.47 1.36 1.25 1.18 1.15 1.04 0.98 0.96 0.89 0.77 0.65 0.59 0.56 0.51 0.47 0.43 0.38 0.35 0.21 0.10 0.07 0.05 0.04 0.04 0.04 0.04 0.05 0.06 0.05 0.05 0.04
0.98 1.23 1.50 1.57 1.64 1.75 1.92 2.11 2.12 1.87 1.65 1.54 1.52 1.52 1.48 1.35 1.30 1.25 1.21 1.15 1.08 0.99 0.85 0.77 0.73 0.68 0.62 0.53 0.46 0.37 0.33 0.24 0.19 0.12 0.06 0.06 0.06 0.05 0.06 0.06 0.07 0.07 0.07
0.92 1.08 1.34 1.56 1.62 1.79 1.93 2.01 2.12 1.91 1.64 1.60 1.58 1.52 1.49 1.40 1.28 1.25 1.23 1.18 1.08 1.01 0.95 0.89 0.84 0.78 0.68 0.60 0.54 0.50 0.46 0.35 0.26 0.23 0.15 0.09 0.09 0.08 0.09 0.09 0.09 0.10 0.10
0.82 0.92 1.08 1.27 1.34 1.46 1.62 1.79 1.93 1.94 1.80 1.66 1.55 1.48 1.43 1.38 1.30 1.23 1.19 1.13 1.06 0.99 0.95 0.94 0.91 0.86 0.77 0.68 0.58 0.54 0.52 0.46 0.35 0.32 0.30 0.21 0.17 0.13 0.12 0.11 0.12 0.12 0.13